Location: Noverd
(38.0910°N, 121.6877°W)
Time: 03:12:11
(UTC+00:00)

SJ-11-01 - Pass Details

Date: 13 February 2026
Orbit: 674 x 689 km, 98.0° (Epoch: 13 March)

Event Time Altitude Azimuth Distance (km) Brightness Sun altitude
Rises 12:45:06 0° 12° (NNE) 3,040 7.8 -26.9°
Reaches altitude 10° 12:47:20 10° 13° (NNE) 2,124 7.0 -26.5°
Maximum altitude 12:51:59 86° 103° (ESE) 688 4.2 -25.5°
Enters shadow 12:52:11 81° 164° (SSE) 693 4.2 -25.5°
